Location: Schommer Observatory
(40.5200°N, 74.4500°W)
Time: 13:36:14
(UTC-04:00)

Vanguard 2 Rocket - All Passes

Search period start: 21 July 2018 00:00
Search period end: 31 July 2018 00:00
Orbit: 554 x 3327 km, 32.9° (Epoch: 20 July)

Date Brightness Start Highest point End Pass type
(mag) Time Alt. Az. Time Alt. Az. Time Alt. Az.
21 Jul - 03:07:43 10° SW 03:12:50 36° SSE 03:21:01 10° E visible
21 Jul - 05:18:53 10° WSW 05:26:04 55° S 05:38:53 10° ESE daylight
21 Jul - 07:31:19 10° W 07:40:51 45° SSW 07:56:23 10° SE daylight
21 Jul - 09:46:15 10° W 09:56:34 25° SSW 10:10:05 10° SSE daylight
22 Jul - 02:09:45 10° SSW 02:13:47 24° SSE 02:19:29 10° E visible
22 Jul - 04:20:12 10° WSW 04:26:17 51° S 04:36:54 10° ESE visible
22 Jul - 06:32:08 10° W 06:40:24 48° S 06:54:35 10° ESE daylight
22 Jul - 08:45:47 10° W 08:55:41 30° SSW 09:09:55 10° SSE daylight
22 Jul - 11:08:08 10° SW 11:11:26 11° SW 11:14:56 10° SSW daylight
23 Jul - 01:12:31 10° S 01:14:56 14° SE 01:17:47 10° ESE visible
23 Jul - 03:21:42 10° SW 03:26:50 42° SSE 03:35:16 10° E visible
23 Jul - 05:33:12 10° WSW 05:40:16 50° S 05:52:40 10° ESE daylight
23 Jul - 07:46:00 10° W 07:55:01 35° SSW 08:09:02 10° SE daylight
23 Jul - 10:03:02 10° WSW 10:10:34 16° SW 10:19:39 10° S daylight
24 Jul - 02:23:25 10° SW 02:27:40 32° SSE 02:33:59 10° E visible
24 Jul - 04:34:28 10° WSW 04:40:28 49° S 04:50:53 10° ESE visible
24 Jul - 06:46:40 10° W 06:54:36 39° SSW 07:07:41 10° SE daylight
24 Jul - 09:01:29 10° WSW 09:09:48 21° SSW 09:20:52 10° S daylight
25 Jul - 01:25:25 10° SSW 01:28:44 21° SSE 01:32:58 10° ESE visible
25 Jul - 03:35:53 10° WSW 03:40:58 45° S 03:49:24 10° ESE visible
25 Jul - 05:47:39 10° W 05:54:30 42° S 06:06:10 10° SE daylight
25 Jul - 08:01:09 10° WSW 08:09:13 25° SSW 08:20:52 10° SSE daylight
26 Jul - 00:28:16 10° S 00:29:52 12° SSE 00:31:36 10° SE night (unlit)
26 Jul - 02:37:24 10° SW 02:41:44 37° SSE 02:48:17 10° ESE visible
26 Jul - 04:48:51 10° WSW 04:54:42 44° S 05:04:40 10° ESE visible
26 Jul - 07:01:30 10° WSW 07:08:51 29° SSW 07:20:12 10° SSE daylight
26 Jul - 09:19:26 10° SW 09:23:59 12° SSW 09:29:14 10° SSW daylight
27 Jul - 01:39:04 10° SW 01:42:42 28° SSE 01:47:33 10° ESE visible
27 Jul - 03:50:10 10° WSW 03:55:11 43° S 04:03:23 10° ESE visible
27 Jul - 06:02:17 10° WSW 06:08:47 33° SSW 06:19:13 10° SE daylight
27 Jul - 08:17:21 10° WSW 08:23:28 16° SSW 08:31:18 10° S daylight
28 Jul - 00:40:56 10° SSW 00:43:47 18° SSE 00:47:02 10° ESE night (unlit)
28 Jul - 02:51:35 10° WSW 02:55:54 39° S 03:02:27 10° ESE visible
28 Jul - 05:03:21 10° WSW 05:08:59 36° S 05:18:08 10° SE visible
28 Jul - 07:16:57 10° WSW 07:23:09 20° SSW 07:31:47 10° SSE daylight
28 Jul - 23:43:30 10° S 23:44:51 11° SSE 23:46:12 10° SE night (unlit)
29 Jul - 01:53:03 10° SW 01:56:48 33° S 02:01:53 10° ESE visible
29 Jul - 04:04:35 10° WSW 04:09:27 37° S 04:17:11 10° ESE visible
29 Jul - 06:17:19 10° WSW 06:23:05 23° SSW 06:31:35 10° SSE daylight
30 Jul - 00:54:33 10° SW 00:57:50 25° SSE 01:01:41 10° ESE night (unlit)
30 Jul - 03:05:54 10° WSW 03:10:08 37° S 03:16:27 10° ESE visible
30 Jul - 05:18:07 10° WSW 05:23:18 26° SSW 05:31:06 10° SE visible
30 Jul - 07:34:28 10° SW 07:37:30 12° SSW 07:40:59 10° S daylight
